Location: Oberkirch
(48.5323°N, 8.0787°E)
Time: 07:00:45
(UTC+00:00)

AO-85 - Pass Details

Date: 16 March 2026
Orbit: 507 x 686 km, 64.8° (Epoch: 14 April)

Event Time Altitude Azimuth Distance (km) Brightness Sun altitude
Exits shadow 04:16:44 25° 246° (WSW) 1,082 ? -14.4°
Maximum altitude 04:18:45 53° 313° (NW) 649 ? -14.1°
Drops below altitude 10° 04:22:33 10° 31° (NNE) 1,741 ? -13.4°
Sets 04:24:44 0° 36° (NE) 2,623 ? -13.1°
